Time,TemperatureF,DewpointF,PressureIn,WindDirection,WindDirectionDegrees,WindSpeedMPH,WindSpeedGustMPH,Humidity,HourlyPrecipIn,Conditions,Clouds,dailyrainin,SoftwareType,DateUTC
2014-01-26 00:04:00,21.7,17.6,29.96,SW,225,0.0,-999.0,84,-99.99,,,0.00,Acu-Link.com,2014-01-26 06:04:00,
2014-01-26 00:19:00,22.3,15.9,29.96,SE,135,0.0,-999.0,76,-99.99,,,0.00,Acu-Link.com,2014-01-26 06:19:00,
2014-01-26 00:34:00,22.5,15.2,29.95,SE,135,0.0,-999.0,73,-99.99,,,0.00,Acu-Link.com,2014-01-26 06:34:00,
2014-01-26 00:49:00,23.2,16.5,29.94,ESE,112,0.0,-999.0,75,-99.99,,,0.00,Acu-Link.com,2014-01-26 06:49:00,
2014-01-26 01:04:00,23.7,16.0,29.93,South,180,2.7,-999.0,72,-99.99,,,0.00,Acu-Link.com,2014-01-26 07:04:00,
2014-01-26 01:19:00,24.1,16.1,29.93,SE,135,0.0,-999.0,71,-99.99,,,0.00,Acu-Link.com,2014-01-26 07:19:00,
2014-01-26 01:34:00,24.6,14.9,29.92,SE,135,0.0,-999.0,66,-99.99,,,0.00,Acu-Link.com,2014-01-26 07:34:00,
2014-01-26 01:50:00,25.0,14.6,29.93,SSE,157,0.0,-999.0,64,-99.99,,,0.00,Acu-Link.com,2014-01-26 07:50:00,
2014-01-26 02:05:00,25.2,14.0,29.93,SE,135,1.7,-999.0,62,-99.99,,,0.00,Acu-Link.com,2014-01-26 08:05:00,
2014-01-26 02:20:00,25.7,14.5,29.92,SE,135,0.0,-999.0,62,-99.99,,,0.00,Acu-Link.com,2014-01-26 08:20:00,
2014-01-26 02:35:00,26.1,13.0,29.91,SE,135,2.7,-999.0,57,-99.99,,,0.00,Acu-Link.com,2014-01-26 08:35:00,
2014-01-26 02:50:00,26.2,12.3,29.91,South,180,2.7,-999.0,55,-99.99,,,0.00,Acu-Link.com,2014-01-26 08:50:00,
2014-01-26 03:05:00,26.6,11.8,29.90,SSE,157,3.7,-999.0,53,-99.99,,,0.00,Acu-Link.com,2014-01-26 09:05:00,
2014-01-26 03:20:00,27.1,11.4,29.89,South,180,4.7,-999.0,51,-99.99,,,0.00,Acu-Link.com,2014-01-26 09:20:00,
2014-01-26 03:36:00,27.5,9.9,29.88,SSE,157,4.2,-999.0,47,-99.99,,,0.00,Acu-Link.com,2014-01-26 09:36:00,
2014-01-26 03:51:00,27.7,10.6,29.84,SE,135,9.4,-999.0,48,-99.99,,,0.00,Acu-Link.com,2014-01-26 09:51:00,
2014-01-26 04:06:00,28.2,9.6,29.82,SW,225,6.3,-999.0,45,-99.99,,,0.00,Acu-Link.com,2014-01-26 10:06:00,
2014-01-26 04:21:00,28.4,9.3,29.80,SSW,202,10.4,-999.0,44,-99.99,,,0.00,Acu-Link.com,2014-01-26 10:21:00,
2014-01-26 04:36:00,28.8,9.2,29.78,SSE,157,8.9,-999.0,43,-99.99,,,0.00,Acu-Link.com,2014-01-26 10:36:00,
2014-01-26 04:51:00,29.3,9.6,29.78,South,180,9.4,-999.0,43,-99.99,,,0.00,Acu-Link.com,2014-01-26 10:51:00,
2014-01-26 05:06:00,30.2,10.4,29.78,SSW,202,11.4,-999.0,43,-99.99,,,0.00,Acu-Link.com,2014-01-26 11:06:00,
2014-01-26 05:21:00,30.2,11.4,29.78,SSW,202,8.9,-999.0,45,-99.99,,,0.00,Acu-Link.com,2014-01-26 11:21:00,
2014-01-26 05:37:00,30.4,11.6,29.77,SSE,157,3.7,-999.0,45,-99.99,,,0.00,Acu-Link.com,2014-01-26 11:37:00,
2014-01-26 05:52:00,31.1,11.8,29.76,SSW,202,8.3,-999.0,44,-99.99,,,0.00,Acu-Link.com,2014-01-26 11:52:00,
2014-01-26 06:07:00,31.3,11.4,29.75,SW,225,6.8,-999.0,43,-99.99,,,0.00,Acu-Link.com,2014-01-26 12:07:00,
2014-01-26 06:22:00,31.3,11.4,29.74,West,270,6.8,-999.0,43,-99.99,,,0.00,Acu-Link.com,2014-01-26 12:22:00,
2014-01-26 06:37:00,31.5,11.6,29.74,SW,225,5.8,-999.0,43,-99.99,,,0.00,Acu-Link.com,2014-01-26 12:37:00,
2014-01-26 06:52:00,31.5,12.1,29.73,SW,225,15.5,-999.0,44,-99.99,,,0.00,Acu-Link.com,2014-01-26 12:52:00,
2014-01-26 07:07:00,31.8,12.4,29.72,SSW,202,11.9,-999.0,44,-99.99,,,0.00,Acu-Link.com,2014-01-26 13:07:00,
2014-01-26 07:22:00,32.7,13.2,29.73,SW,225,11.9,-999.0,44,-99.99,,,0.00,Acu-Link.com,2014-01-26 13:22:00,
2014-01-26 07:37:00,33.3,14.3,29.73,WSW,247,10.9,-999.0,45,-99.99,,,0.00,Acu-Link.com,2014-01-26 13:37:00,
2014-01-26 07:53:00,34.5,16.4,29.74,SSW,202,6.8,-999.0,47,-99.99,,,0.00,Acu-Link.com,2014-01-26 13:53:00,
2014-01-26 08:08:00,36.1,18.3,29.74,SSW,202,9.9,-999.0,48,-99.99,,,0.00,Acu-Link.com,2014-01-26 14:08:00,
2014-01-26 08:23:00,37.4,20.5,29.73,SW,225,7.8,-999.0,50,-99.99,,,0.00,Acu-Link.com,2014-01-26 14:23:00,
2014-01-26 08:38:00,38.5,22.0,29.72,SW,225,7.8,-999.0,51,-99.99,,,0.00,Acu-Link.com,2014-01-26 14:38:00,
2014-01-26 08:53:00,39.7,23.1,29.73,SSW,202,5.3,-999.0,51,-99.99,,,0.00,Acu-Link.com,2014-01-26 14:53:00,
2014-01-26 09:08:00,41.7,25.4,29.74,SSW,202,10.4,-999.0,52,-99.99,,,0.00,Acu-Link.com,2014-01-26 15:08:00,
2014-01-26 09:23:00,43.9,27.9,29.74,SW,225,15.0,-999.0,53,-99.99,,,0.00,Acu-Link.com,2014-01-26 15:23:00,
2014-01-26 09:38:00,45.1,29.5,29.73,WSW,247,10.4,-999.0,54,-99.99,,,0.00,Acu-Link.com,2014-01-26 15:38:00,
2014-01-26 09:53:00,46.2,30.0,29.74,SW,225,7.3,-999.0,53,-99.99,,,0.00,Acu-Link.com,2014-01-26 15:53:00,
2014-01-26 10:09:00,47.3,31.0,29.74,SW,225,8.3,-999.0,53,-99.99,,,0.00,Acu-Link.com,2014-01-26 16:09:00,
2014-01-26 10:24:00,48.2,30.9,29.73,SW,225,10.9,-999.0,51,-99.99,,,0.00,Acu-Link.com,2014-01-26 16:24:00,
2014-01-26 10:39:00,49.6,33.2,29.73,SW,225,8.3,-999.0,53,-99.99,,,0.00,Acu-Link.com,2014-01-26 16:39:00,
2014-01-26 10:54:00,50.2,32.8,29.72,SW,225,10.9,-999.0,51,-99.99,,,0.00,Acu-Link.com,2014-01-26 16:54:00,
2014-01-26 11:09:00,50.9,33.4,29.71,SW,225,5.3,-999.0,51,-99.99,,,0.00,Acu-Link.com,2014-01-26 17:09:00,
2014-01-26 11:24:00,52.0,33.9,29.71,SW,225,6.8,-999.0,50,-99.99,,,0.00,Acu-Link.com,2014-01-26 17:24:00,
2014-01-26 11:39:00,52.7,34.1,29.70,SSW,202,5.3,-999.0,49,-99.99,,,0.00,Acu-Link.com,2014-01-26 17:39:00,
2014-01-26 11:54:00,54.3,35.0,29.68,SW,225,5.8,-999.0,48,-99.99,,,0.00,Acu-Link.com,2014-01-26 17:54:00,
2014-01-26 12:10:00,55.6,35.7,29.68,WSW,247,5.8,-999.0,47,-99.99,,,0.00,Acu-Link.com,2014-01-26 18:10:00,
2014-01-26 12:25:00,55.4,35.5,29.67,West,270,7.3,-999.0,47,-99.99,,,0.00,Acu-Link.com,2014-01-26 18:25:00,
2014-01-26 12:40:00,55.9,36.0,29.66,SW,225,9.4,-999.0,47,-99.99,,,0.00,Acu-Link.com,2014-01-26 18:40:00,
2014-01-26 12:55:00,56.5,36.5,29.66,West,270,5.3,-999.0,47,-99.99,,,0.00,Acu-Link.com,2014-01-26 18:55:00,
2014-01-26 13:10:00,55.6,36.2,29.66,SSW,202,9.9,-999.0,48,-99.99,,,0.00,Acu-Link.com,2014-01-26 19:10:00,
2014-01-26 13:40:00,56.8,36.8,29.64,SW,225,8.3,-999.0,47,-99.99,,,0.00,Acu-Link.com,2014-01-26 19:40:00,
2014-01-26 13:55:00,57.9,37.8,29.64,SSW,202,6.3,-999.0,47,-99.99,,,0.00,Acu-Link.com,2014-01-26 19:55:00,
2014-01-26 14:10:00,57.9,37.8,29.63,SW,225,6.3,-999.0,47,-99.99,,,0.00,Acu-Link.com,2014-01-26 20:10:00,
2014-01-26 14:26:00,59.7,38.3,29.63,West,270,6.8,-999.0,45,-99.99,,,0.00,Acu-Link.com,2014-01-26 20:26:00,
2014-01-26 14:41:00,59.5,38.1,29.62,SSW,202,6.3,-999.0,45,-99.99,,,0.00,Acu-Link.com,2014-01-26 20:41:00,
2014-01-26 14:56:00,59.7,38.3,29.62,SW,225,6.3,-999.0,45,-99.99,,,0.00,Acu-Link.com,2014-01-26 20:56:00,
2014-01-26 15:11:00,59.4,38.6,29.62,SSW,202,9.9,-999.0,46,-99.99,,,0.00,Acu-Link.com,2014-01-26 21:11:00,
2014-01-26 15:26:00,59.2,38.4,29.62,WSW,247,5.3,-999.0,46,-99.99,,,0.00,Acu-Link.com,2014-01-26 21:26:00,
2014-01-26 15:41:00,59.9,39.1,29.62,WSW,247,8.9,-999.0,46,-99.99,,,0.00,Acu-Link.com,2014-01-26 21:41:00,
2014-01-26 15:57:00,58.8,40.2,29.62,SSW,202,4.7,-999.0,50,-99.99,,,0.00,Acu-Link.com,2014-01-26 21:57:00,
2014-01-26 16:12:00,57.2,39.7,29.62,SSW,202,8.9,-999.0,52,-99.99,,,0.00,Acu-Link.com,2014-01-26 22:12:00,
2014-01-26 16:27:00,56.7,40.7,29.62,SW,225,7.3,-999.0,55,-99.99,,,0.00,Acu-Link.com,2014-01-26 22:27:00,
2014-01-26 16:42:00,55.6,41.5,29.61,SW,225,1.7,-999.0,59,-99.99,,,0.00,Acu-Link.com,2014-01-26 22:42:00,
2014-01-26 16:57:00,55.4,40.0,29.60,SSE,157,1.1,-999.0,56,-99.99,,,0.00,Acu-Link.com,2014-01-26 22:57:00,
2014-01-26 17:12:00,54.5,41.3,29.62,SSW,202,2.2,-999.0,61,-99.99,,,0.00,Acu-Link.com,2014-01-26 23:12:00,
2014-01-26 17:27:00,54.0,41.3,29.61,SSW,202,2.7,-999.0,62,-99.99,,,0.00,Acu-Link.com,2014-01-26 23:27:00,
2014-01-26 17:42:00,53.6,41.7,29.62,SW,225,1.1,-999.0,64,-99.99,,,0.00,Acu-Link.com,2014-01-26 23:42:00,
2014-01-26 17:57:00,53.2,42.5,29.63,West,270,3.7,-999.0,67,-99.99,,,0.00,Acu-Link.com,2014-01-26 23:57:00,
2014-01-26 18:13:00,53.1,42.0,29.64,SW,225,2.7,-999.0,66,-99.99,,,0.00,Acu-Link.com,2014-01-27 00:13:00,
2014-01-26 18:28:00,53.4,42.3,29.66,WSW,247,0.0,-999.0,66,-99.99,,,0.00,Acu-Link.com,2014-01-27 00:28:00,
2014-01-26 18:43:00,53.2,42.5,29.67,WNW,292,0.0,-999.0,67,-99.99,,,0.00,Acu-Link.com,2014-01-27 00:43:00,
2014-01-26 18:58:00,52.9,43.0,29.67,West,270,6.3,-999.0,69,-99.99,,,0.00,Acu-Link.com,2014-01-27 00:58:00,
2014-01-26 19:13:00,53.4,43.5,29.68,SW,225,6.3,-999.0,69,-99.99,,,0.00,Acu-Link.com,2014-01-27 01:13:00,
2014-01-26 19:28:00,53.6,43.7,29.68,SSW,202,5.8,-999.0,69,-99.99,,,0.00,Acu-Link.com,2014-01-27 01:28:00,
2014-01-26 19:43:00,53.1,43.2,29.68,SW,225,4.7,-999.0,69,-99.99,,,0.00,Acu-Link.com,2014-01-27 01:43:00,
2014-01-26 19:58:00,52.5,43.4,29.68,WSW,247,3.7,-999.0,71,-99.99,,,0.00,Acu-Link.com,2014-01-27 01:58:00,
2014-01-26 20:13:00,51.8,43.4,29.69,SW,225,2.7,-999.0,73,-99.99,,,0.00,Acu-Link.com,2014-01-27 02:13:00,
2014-01-26 20:44:00,51.4,45.8,29.70,WSW,247,0.0,-999.0,81,-99.99,,,0.00,Acu-Link.com,2014-01-27 02:44:00,
2014-01-26 20:59:00,50.4,43.1,29.70,WSW,247,0.0,-999.0,76,-99.99,,,0.00,Acu-Link.com,2014-01-27 02:59:00,
2014-01-26 21:14:00,49.8,43.6,29.71,West,270,0.0,-999.0,79,-99.99,,,0.00,Acu-Link.com,2014-01-27 03:14:00,
2014-01-26 21:29:00,48.9,43.0,29.72,WSW,247,0.0,-999.0,80,-99.99,,,0.00,Acu-Link.com,2014-01-27 03:29:00,
2014-01-26 21:44:00,48.0,42.5,29.74,WSW,247,0.0,-999.0,81,-99.99,,,0.00,Acu-Link.com,2014-01-27 03:44:00,
2014-01-26 21:59:00,47.1,42.2,29.74,NNW,337,0.0,-999.0,83,-99.99,,,0.00,Acu-Link.com,2014-01-27 03:59:00,
2014-01-26 22:14:00,46.4,42.7,29.74,SW,225,0.0,-999.0,87,-99.99,,,0.00,Acu-Link.com,2014-01-27 04:14:00,
2014-01-26 22:29:00,46.8,46.5,29.75,SW,225,1.1,-999.0,99,-99.99,,,0.00,Acu-Link.com,2014-01-27 04:29:00,
2014-01-26 22:44:00,45.5,41.9,29.75,SW,225,0.0,-999.0,87,-99.99,,,0.00,Acu-Link.com,2014-01-27 04:44:00,
2014-01-26 23:00:00,46.0,40.8,29.76,WSW,247,2.7,-999.0,82,-99.99,,,0.00,Acu-Link.com,2014-01-27 05:00:00,
2014-01-26 23:15:00,46.9,38.4,29.77,NW,315,7.3,-999.0,72,-99.99,,,0.00,Acu-Link.com,2014-01-27 05:15:00,
2014-01-26 23:30:00,39.0,32.4,29.86,North,0,13.0,-999.0,77,-99.99,,,0.00,Acu-Link.com,2014-01-27 05:30:00,
2014-01-26 23:45:00,35.1,28.3,29.88,NNW,337,18.1,-999.0,76,-99.99,,,0.00,Acu-Link.com,2014-01-27 05:45:00,